Winner, SD

3:44 AM CST on December 08, 2016 (GMT -0600)
Winner

Weather History for KICR - May, 2013

Change the Weather History Date:

Saturday, May 18, 2013

  Actual Average Record
Temperature  
Mean Temperature 69 °F 59 °F  
Max Temperature 79 °F 71 °F 91 °F (2012)
Min Temperature 59 °F 47 °F 38 °F (2015)
Degree Days  
Heating Degree Days 0 7  
Month to date heating degree days 174 172  
Since 1 July heating degree days 6576 6576  
Cooling Degree Days 4 1  
Month to date cooling degree days 31 13  
Year to date cooling degree days 33 15  
Growing Degree Days 19 (Base 50)    
Moisture  
Dew Point 60 °F    
Average Humidity 71    
Maximum Humidity 84    
Minimum Humidity 57    
Precipitation  
Precipitation 0.64 in 0.10 in 0.64 in (2013)
Month to date precipitation 1.91 1.92  
Year to date precipitation 3.37 6.55  
Sea Level Pressure  
Sea Level Pressure 29.76 in    
Wind  
Wind Speed 15 mph (SE)    
Max Wind Speed 38 mph    
Max Gust Speed 51 mph    
Visibility 8 miles    
Events Rain , Thunderstorm    
T = Trace of Precipitation, MM = Missing Value Source: NWS Daily Summary

Daily Weather History Graph

Daily Weather History Graph

Search for Another Location

Airport or City:

Trip Planner

Search our weather history database for the weather conditions in past years. The results will help you decide how hot, cold, wet, or windy it might be!

Date:

Astronomy

May. 18, 2013 Rise Set
Actual Time 6:11 AM CDT 9:00 PM CDT
Civil Twilight 5:38 AM CDT 9:33 PM CDT
Nautical Twilight 4:56 AM CDT 10:16 PM CDT
Astronomical Twilight 4:07 AM CDT 11:05 PM CDT
Moon 1:53 PM CDT (5/18) 2:17 AM CDT (5/18)
Length of Visible Light 15h 55m
Length of Day
14h 48m
First Quarter, 55% of the Moon is Illuminated
May 18
First Quarter
May 24
Full
May 31
Last Quarter
Jun 8
New
Jun 16
First Quarter

Hourly Weather History & Observations

Time (CDT) Temp. Dew Point Humidity Pressure Visibility Wind Dir Wind Speed Gust Speed Precip Events Conditions
12:53 AM 64.9 °F 55.9 °F 73% 29.75 in 10.0 mi South 15.0 mph 20.7 mph 0.05 in Rain Light Rain
1:53 AM 73.0 °F 57.0 °F 57% 29.73 in 10.0 mi South 18.4 mph - 0.00 in Rain Light Rain
2:53 AM 66.9 °F 57.9 °F 73% 29.78 in 10.0 mi WSW 5.8 mph - 0.01 in Rain Light Rain
3:43 AM 66.2 °F 59.0 °F 78% 29.86 in 10.0 mi SW 9.2 mph - 0.01 in Rain , Thunderstorm Light Thunderstorms and Rain
3:53 AM 70.0 °F 57.9 °F 65% 29.80 in 3.0 mi Calm Calm - 0.10 in Rain , Thunderstorm Thunderstorms and Rain
4:53 AM 64.0 °F 59.0 °F 84% 29.82 in 10.0 mi West 9.2 mph - 0.08 in Rain , Thunderstorm Light Thunderstorms and Rain
5:07 AM 64.4 °F 57.2 °F 77% 29.86 in 10.0 mi NE 8.1 mph - 0.00 in Rain , Thunderstorm Light Rain
5:37 AM 60.8 °F 57.2 °F 88% 29.94 in 2.0 mi West 23.0 mph 38.0 mph 0.13 in Rain , Thunderstorm Heavy Thunderstorms and Rain
5:39 AM 60.8 °F 57.2 °F 88% 29.92 in 1.8 mi NW 16.1 mph 38.0 mph 0.16 in Rain , Thunderstorm Heavy Thunderstorms and Rain
5:47 AM 60.8 °F 59.0 °F 94% 29.92 in 2.5 mi NNW 13.8 mph - 0.22 in Rain , Thunderstorm Thunderstorms and Rain
5:53 AM 60.1 °F 59.0 °F 96% 29.87 in 6.0 mi North 9.2 mph - 0.23 in Rain , Thunderstorm Thunderstorms and Rain
6:21 AM 60.8 °F 59.0 °F 94% 29.89 in 8.0 mi NNE 8.1 mph - 0.05 in Rain Light Rain
6:53 AM 61.0 °F 59.0 °F 93% 29.81 in 10.0 mi East 10.4 mph - 0.07 in Rain Light Rain
7:18 AM 60.8 °F 59.0 °F 94% 29.86 in 10.0 mi ESE 11.5 mph - 0.00 in Rain , Thunderstorm Light Rain
7:46 AM 60.8 °F 59.0 °F 94% 29.82 in 6.0 mi ESE 24.2 mph - 0.04 in Rain Rain
7:53 AM 60.1 °F 59.0 °F 96% 29.76 in 6.0 mi ESE 26.5 mph - 0.06 in Rain , Thunderstorm Thunderstorms and Rain
8:22 AM 60.8 °F 57.2 °F 88% 29.77 in 10.0 mi ESE 25.3 mph 34.5 mph 0.01 in Rain Light Rain
8:32 AM 62.6 °F 55.4 °F 77% 29.79 in 10.0 mi ESE 23.0 mph 36.8 mph 0.01 in Rain , Thunderstorm Light Rain
8:53 AM 63.0 °F 55.9 °F 78% 29.75 in 10.0 mi ESE 21.9 mph 26.5 mph 0.01 in Rain Light Rain
9:00 AM 62.6 °F 55.4 °F 77% 29.76 in 10.0 mi ESE 17.3 mph 26.5 mph 0.01 in Rain , Thunderstorm Light Rain
9:14 AM 62.6 °F 55.4 °F 77% 29.77 in 10.0 mi SE 17.3 mph - 0.01 in Thunderstorm Mostly Cloudy
9:35 AM 66.2 °F 57.2 °F 73% 29.76 in 10.0 mi SE 21.9 mph 28.8 mph 0.01 in Rain Light Rain
9:53 AM 66.9 °F 57.9 °F 73% 29.72 in 10.0 mi SE 26.5 mph 34.5 mph 0.01 in   Scattered Clouds
10:53 AM 72.0 °F 62.1 °F 71% 29.74 in 10.0 mi SE 25.3 mph 33.4 mph N/A   Clear
11:53 AM 75.0 °F 64.0 °F 69% 29.75 in 10.0 mi SE 19.6 mph 28.8 mph N/A   Clear
12:53 PM 77.0 °F 64.0 °F 64% 29.74 in 10.0 mi SE 24.2 mph 29.9 mph N/A   Partly Cloudy
2:53 PM 75.9 °F 64.0 °F 67% 29.73 in 10.0 mi SSE 16.1 mph - N/A   Overcast
3:53 PM 78.1 °F 64.9 °F 64% 29.72 in 10.0 mi SE 12.7 mph - N/A   Scattered Clouds
4:53 PM 77.0 °F 66.0 °F 69% 29.70 in 10.0 mi SE 8.1 mph - N/A   Overcast
5:53 PM 78.1 °F 66.0 °F 66% 29.69 in 10.0 mi SE 13.8 mph - N/A   Mostly Cloudy
6:53 PM 75.9 °F 66.0 °F 71% 29.66 in 10.0 mi South 3.5 mph - N/A   Clear
7:53 PM 75.0 °F 66.9 °F 76% 29.63 in 9.0 mi SE 12.7 mph - N/A   Scattered Clouds
8:53 PM 72.0 °F 66.0 °F 81% 29.64 in 6.0 mi SE 11.5 mph - N/A   Haze
9:53 PM 71.1 °F 66.0 °F 84% 29.62 in 7.0 mi SE 10.4 mph - N/A   Clear
10:53 PM 71.1 °F 64.9 °F 81% 29.61 in 7.0 mi South 11.5 mph - N/A   Partly Cloudy
11:03 PM 66.2 °F 55.4 °F 68% 29.69 in 9.0 mi WSW 33.4 mph 50.6 mph N/A Thunderstorm Squalls
11:50 PM 60.8 °F 55.4 °F 82% 29.68 in 5.0 mi West 31.1 mph 39.1 mph 0.07 in Rain Rain
11:53 PM 60.1 °F 55.9 °F 86% 29.65 in 5.0 mi West 25.3 mph 39.1 mph 0.07 in Rain Rain